This demonstration page uses our WeatherBlox Daily Observations layout. Learn more.

Left ArrowRight Arrow

31.31129, -92.44514

Hourly Observations for December 14, 2015

Temp ( °F °C ) Dew Point ( °F °C ) Humidity (%) Winds ( mph kmh ) Pressure ( in mb ) Visibility ( mi km ) Precip ( " mm )
12:30 am 00:30 Mostly Cloudy 51 10.6 50 10 96 96 S 9 15 29.77 1008 10 16 0.00 0.00
12:53 am 00:53 Cloudy 51 10.6 49 9.4 92 92 SSW 7 11 29.78 1008 10 16 0.00 0.00
1:53 am 01:53 Partly Cloudy 50 10 49 9.4 96 96 S 10 17 29.77 1008 10 16 0.00 0.00
2:17 am 02:17 Mostly Cloudy 50 10 49 9.4 96 96 S 9 15 29.74 1007 10 16 0.00 0.00
2:53 am 02:53 Mostly Cloudy 50 10 49 9.4 96 96 SSE 8 13 29.75 1008 10 16 0.00 0.00
3:53 am 03:53 Cloudy 51 10.6 49 9.4 92 92 S 9 15 29.76 1008 10 16 0.00 0.00
4:53 am 04:53 Mostly Cloudy 51 10.6 50 10 96 96 S 8 13 29.76 1008 10 16 0.00 0.00
5:00 am 05:00 Partly Cloudy 51 10.6 50 10 96 96 S 8 13 29.74 1007 10 16 0.00 0.00
5:53 am 05:53 Clear 50 10 49 9.4 96 96 S 8 13 29.77 1008 10 16 0.00 0.00
6:53 am 06:53 Clear 52 11.1 49 9.4 89 89 SSW 10 17 29.80 1009 10 16 0.00 0.00
7:53 am 07:53 Sunny 54 12.2 48 8.9 80 80 SW 7 11 29.82 1010 10 16 0.00 0.00
8:53 am 08:53 Sunny 56 13.3 49 9.4 77 77 SW 8 13 29.83 1010 10 16 0.00 0.00
9:53 am 09:53 Sunny 59 15 46 7.8 62 62 WSW 9 15 29.84 1011 10 16 0.00 0.00
10:53 am 10:53 Sunny 62 16.7 46 7.8 56 56 WSW 10 17 29.85 1011 10 16 0.00 0.00
11:53 am 11:53 Sunny 64 17.8 45 7.2 50 50 W 8 13 29.82 1010 10 16 0.00 0.00
12:53 pm 12:53 Sunny 66 18.9 46 7.8 49 49 SW 10 17 29.80 1009 10 16 0.00 0.00
1:53 pm 13:53 Sunny 67 19.4 46 7.8 47 47 WSW 6 9 29.79 1009 10 16 0.00 0.00
2:53 pm 14:53 Sunny 68 20 46 7.8 45 45 W 6 9 29.78 1009 10 16 0.00 0.00
3:53 pm 15:53 Sunny 68 20 47 8.3 47 47 WSW 5 7 29.80 1009 10 16 0.00 0.00
4:53 pm 16:53 Sunny 65 18.3 48 8.9 54 54 SW 5 7 29.80 1009 10 16 0.00 0.00
5:53 pm 17:53 Clear 59 15 51 10.6 75 75 S 5 7 29.81 1010 10 16 0.00 0.00
6:53 pm 18:53 Clear 54 12.2 47 8.3 77 77 SE 5 7 29.83 1010 10 16 0.00 0.00
7:53 pm 19:53 Clear 54 12.2 47 8.3 77 77 SE 3 6 29.83 1010 10 16 0.00 0.00
8:53 pm 20:53 Clear 53 11.7 47 8.3 80 80 SE 3 6 29.83 1010 10 16 0.00 0.00
9:53 pm 21:53 Clear 52 11.1 47 8.3 83 83 SE 6 9 29.85 1011 10 16 0.00 0.00
10:53 pm 22:53 Clear 50 10 46 7.8 86 86 SE 6 9 29.86 1011 10 16 0.00 0.00
11:53 pm 23:53 Clear 49 9.4 47 8.3 93 93 SE 6 9 29.86 1011 10 16 0.00 0.00

Powered by AerisWeather